CW1120 Goteborg SE current weather conditions

sailwx.info

Wind from 239 at 17 knots gusting 25

Air temperature 13.3° C
Dewpoint 8.4° C

Last reported at 2019-Sep-16 00:03 UTC.
Time now 2019-Sep-16 00:27 UTC

Location: N 58°01' E 011°35'.
View on Google Maps.

See reports from other nearby stations

  
Tides and Currents Weather Stations Pressure Air Temp Water Temp Dewpoint Dewpoint Depression Visibility Wind Speed Wind Dir Waves Ship Positions
date/time (UTC)wind fromknots sea level pressurealtimeterstation pressurevisibilityair tempwater tempwave heightnotes
2019-Sep-16 00:03 239 17 gusting 25 13.3
2019-Sep-15 23:53 261 19 gusting 26 13.3
2019-Sep-15 23:43 276 13 gusting 25 13.3
2019-Sep-15 23:33 265 18 gusting 24 13.3
2019-Sep-15 23:23 273 16 gusting 26 13.3
2019-Sep-15 23:13 265 14 gusting 22 13.3
2019-Sep-15 23:03 256 15 gusting 27 13.3
2019-Sep-15 22:53 283 15 gusting 25 13.3
2019-Sep-15 22:43 282 19 gusting 25 13.3
2019-Sep-15 22:33 228 19 gusting 27 13.3
2019-Sep-15 22:23 251 19 gusting 24 13.3
2019-Sep-15 22:13 247 18 gusting 27 13.3
2019-Sep-15 22:03 270 16 gusting 23 13.3
2019-Sep-15 21:53 284 18 gusting 28 13.3
2019-Sep-15 21:43 261 17 gusting 25 13.3
2019-Sep-15 21:33 219 19 gusting 26 13.3
2019-Sep-15 21:23 261 16 gusting 24 13.3
2019-Sep-15 21:13 282 16 gusting 26 13.3
2019-Sep-15 21:03 257 18 gusting 26 13.3
2019-Sep-15 20:53 259 18 gusting 29 13.9
2019-Sep-15 20:43 255 18 gusting 26 13.9
2019-Sep-15 20:33 263 17 gusting 25 13.9
2019-Sep-15 20:23 243 16 gusting 26 13.9
2019-Sep-15 20:13 270 20 gusting 32 13.9
2019-Sep-15 20:03 272 19 gusting 28 13.9
2019-Sep-15 19:53 290 19 gusting 27 13.9
2019-Sep-15 19:43 243 19 gusting 27 13.9
2019-Sep-15 19:33 242 20 gusting 31 13.9
2019-Sep-15 19:23 265 19 gusting 26 13.9
2019-Sep-15 19:13 249 19 gusting 26 13.9
2019-Sep-15 19:03 265 20 gusting 33 13.9
2019-Sep-15 18:53 266 19 gusting 29 13.9
2019-Sep-15 18:43 265 18 gusting 27 13.9
2019-Sep-15 18:33 258 20 gusting 27 13.9
2019-Sep-15 18:23 269 19 gusting 26 13.9
2019-Sep-15 18:13 239 19 gusting 34 13.9
2019-Sep-15 18:03 253 21 gusting 33 13.9
2019-Sep-15 17:53 257 23 gusting 33 13.9
2019-Sep-15 17:43 253 19 gusting 31 13.9
2019-Sep-15 17:33 259 19 gusting 34 13.9
2019-Sep-15 17:23 250 21 gusting 32 13.9
2019-Sep-15 17:13 259 19 gusting 33 13.9
2019-Sep-15 17:03 243 20 gusting 28 13.9
2019-Sep-15 16:53 251 18 gusting 32 13.9
2019-Sep-15 16:43 257 20 gusting 33 14.4
2019-Sep-15 16:33 288 20 gusting 33 14.4
2019-Sep-15 16:23 250 20 gusting 35 14.4
2019-Sep-15 16:13 242 24 gusting 33 14.4
2019-Sep-15 16:03 263 20 gusting 33 14.4
2019-Sep-15 15:53 255 19 gusting 32 14.4
2019-Sep-15 15:43 224 23 gusting 33 15.0
2019-Sep-15 15:33 245 20 gusting 31 15.0
2019-Sep-15 15:23 261 19 gusting 33 15.0
2019-Sep-15 15:13 244 21 gusting 32 15.0
2019-Sep-15 15:03 252 17 gusting 33 15.0
2019-Sep-15 14:53 242 23 gusting 33 15.0
2019-Sep-15 14:43 226 17 gusting 33 15.0
2019-Sep-15 14:33 259 22 gusting 33 15.0
2019-Sep-15 14:24 211 21 gusting 33 15.0